FENGYUN 1C DEB

Satellite information

Favourite Embed

Satellite Type and Status

DEBRISIN ORBIT

Key statistics

Satellite FENGYUN 1C DEB at a glance.

Uptime

9656

Days in orbit

Revolutions

≈ 14.3

Per day

Orbit

SSO

Sun Synchronous Orbit

Inclination

98.8

Latest

Satellite identification and parameters

Extended collection of information and parameters for FENGYUN 1C DEB.

Object identification

Identified? True

Debris? True

Object name: FENGYUN 1C DEB

International designator: 1999-025AXS

Object number (NORAD): 30880

Object ID (CCSDS): 30880

Country: PEOPLES REPUBLIC OF CHINA (PRC)

Current information (Y/N): Y

RCS size: SMALL

Orbital parameters

Period: 101.048 minutes

Inclination: 98.7989 deg

SMA: 7186.421 km

Apoapsis: 823.4 km

Periapsis: 793.173 km

RAAN: 0.6018 deg

Eccentricy: 0.00210303

Argument of periapsis: 268.4642 deg

Mean anomaly: 91.4128 deg

Mean motion: 14.25061934 rev/day

Mean motion (dot): 0.00004079 rev/day2

B* drag term: 0.0017550958 1/REarth

Two-line elements (TLE)

Creation date: Oct. 16, 2025, 2:37 a.m.

Reference frame: TEME

Reference center: EARTH

Epoch: Oct. 15, 2025, 9:57 p.m. UTC

TLE line 0: 0 FENGYUN 1C DEB

TLE line 1: 1 30880U 99025AXS 25288.91466486 .00004079 00000-0 17551-2 0 9994

TLE line 2: 2 30880 98.7989 0.6018 0021030 268.4642 91.4128 14.25061934958905

Live tracking on map

Real-time ground track for satellite FENGYUN 1C DEB.

In-orbit conjunctions

A list of the most updated potential collisions computed for object FENGYUN 1C DEB.

Target Orbit TCA Probability of collision Miss distance Type
NOAA 10 SSO 2025-03-23 13:21:01 0.0008063296 263.0 (m) PAYLOAD
METEOR 2-6 LEO 2025-02-12 01:12:15 0.0002749399 975.0 (m) PAYLOAD
THOR BURNER 2 R/B SSO 2024-10-29 22:15:06 0.0005094814 274.0 (m) ROCKET BODY
SOLRAD 1 (GREB) LEO 2024-06-28 09:39:04 0.0001319983 409.0 (m) PAYLOAD

Associated space launch

Chinese polar orbiting meteorological satellite

FENGYUN 1C DEB was lifted into orbit during the mission ‘Long March 4B | Feng Yun 1C’, on board a Long March 4B space rocket.

The launch took place on May 10, 1999, 1:33 a.m. from Launch Complex 7.

For more information about the launch, click the button.

Launch to space Long March 4B | Feng Yun 1C
Long March 4B | Feng Yun 1C

Agency: N/A

Status: Launch Successful

Launch date: May 10, 1999, 1:33 a.m. UTC

Rocket: Long March 4B

Launch pad: Launch Complex 7

Location: Taiyuan Satellite Launch Center, People's Republic of China

...

Latest news about this satellite

There are no fresh news available about this satellite. Check back as we update our databases every day.


Newsletter sign-up

Weekly statistics, charts and insights to help you stay on top of the space industry.